カタログに戻る

CZ-6A DEB

運用中PO
NORAD 54358·DEBRIS·🇨🇳 China

打ち上げ Nov 11, 2022 から Taiyuan Satellite Launch Center

Loading…

次のパス (今後24時間)

TLE

最新Source: Space-Track

元期: Sep 13, 2026, 16:43 UTC

1 54358U 22151DD  26256.69671287  .00014064  00000-0  13205-2 0  9991
2 54358  98.4479 338.1090 0079501 202.7090 157.0603 14.91682140205155

AllMySatでCZ-6A DEBをリアルタイム追跡

Download on the App Store